Regional Weather Roundup
Issued by NWS

Home | Current Version | Previous Version | Text Only | Print | Product List | Glossary Off
Versions: 1 2 3 4 5 6 7 8 9 10 11 12 13 14 15 16 17 18 19 20 21 22 23 24 25 26 27 28 29 30 31 32 33 34 35 36 37 38 39 40 41 42 43 44 45 46 47 48 49 50

000
ASUS45 KPSR 051610
RWRAZ

ARIZONA HOURLY REGIONAL WEATHER ROUNDUP
NATIONAL WEATHER SERVICE PHOENIX AZ
900 AM MST SUN JUL 05 2015

NOTE: FAIR INDICATES FEW OR NO CLOUDS BELOW 12,000 FEET WITH NO
SIGNIFICANT WEATHER AND/OR OBSTRUCTIONS TO VISIBILITY.

AZZ001>003-036-051700-
NORTHWEST ARIZONA

CITY           SKY/WX    TMP DP  RH WIND       PRES   REMARKS
BULLHEAD CITY  PTSUNNY   93  55  27 SW8       29.85S
KINGMAN        MOSUNNY   90  50  25 SW6       30.04R
$$

AZZ004>008-015-016-018-051700-
NORTH CENTRAL ARIZONA

CITY           SKY/WX    TMP DP  RH WIND       PRES   REMARKS
GRAND CANYON   SUNNY     73  51  46 W10       30.28S
WILLIAMS       CLOUDY    73  54  49 W12       30.36S
PRESCOTT       MOSUNNY   80  54  40 VRB3      30.18R
FLAGSTAFF      PTSUNNY   68  57  68 SW8       30.32S
PAYSON         CLOUDY    73  57  56 CALM      30.22R
PAGE           SUNNY     86  50  28 CALM      30.07S
$$

AZZ009>014-017-051700-
NORTHEAST ARIZONA

CITY           SKY/WX    TMP DP  RH WIND       PRES   REMARKS
WINSLOW        PTSUNNY   71  63  75 CALM      30.17R
SAINT JOHNS    PTSUNNY   72  57  59 N3        30.21S
WINDOW ROCK    CLOUDY    67  57  70 SW5       30.27R
SHOW LOW       CLOUDY    68  54  60 SW7       30.28S
$$

AZZ023-051700-
GREATER PHOENIX AREA

CITY           SKY/WX    TMP DP  RH WIND       PRES   REMARKS
PHOENIX        PTSUNNY   92  61  35 W7        29.91R
BUCKEYE        SUNNY     91  61  35 SW3       29.93R
GLENDALE       MOSUNNY   93  61  33 S8        29.93R
LUKE AFB       MOSUNNY   91  61  35 SW10      29.91R
DEER VALLEY    MOSUNNY   89  58  34 S6        29.94R
SCOTTSDALE     PTSUNNY   91  56  30 VRB5      29.95R
MESA-FALCON    PTSUNNY   90  57  33 SW7       29.94R
MESA-GATEWAY   MOSUNNY   91  59  33 CALM      29.95S
CHANDLER       PTSUNNY   93  59  31 VRB6      29.93S
$$

AZZ027-028-051700-
SOUTHWEST MARICOPA COUNTY AND PINAL COUNTY

CITY           SKY/WX    TMP DP  RH WIND       PRES   REMARKS
CASA GRANDE    PTSUNNY   91  61  35 S8        29.94S
GILA BEND      FAIR      95  59  30 SW10      29.89S
$$

AZZ503-504-507>509-051700-
SOUTHEAST ARIZONA

CITY           SKY/WX    TMP DP  RH WIND       PRES   REMARKS
TUCSON         CLOUDY    85  63  47 S10       30.06R
DAVIS-MONTHAN  PTSUNNY   82  65  55 S9        30.05R
RYAN FIELD     MOSUNNY   84  64  51 CALM      30.04R
NOGALES        CLOUDY    73  61  65 S8        30.15R
SIERRA VISTA   CLOUDY    70  61  73 SE9       30.20R
DOUGLAS        LGT RAIN  69  64  84 NE3       30.16S
SAFFORD        CLOUDY    81  62  52 W5        30.05R
$$

AZZ020-021-025-026-031-051700-
SOUTHWEST ARIZONA

CITY           SKY/WX    TMP DP  RH WIND       PRES   REMARKS
YUMA           SUNNY     92  73  53 S21       29.85R HX 100
$$

CAZ031-033-041-043-047-048-061-051700-
SOUTHERN CALIFORNIA

CITY           SKY/WX    TMP DP  RH WIND       PRES   REMARKS
DOWNTOWN L.A.  CLOUDY    67  59  75 VRB3      29.98R
L.A. AIRPORT   CLOUDY    64  60  87 W6        29.99S
SAN DIEGO      CLOUDY    68  58  70 NW5       30.01R
BURBANK        CLOUDY    66  58  75 CALM      29.98S HAZE
ONTARIO        CLOUDY    66  58  75 SW3       29.99R HAZE
RIVERSIDE      CLOUDY    67  59  75 VRB5      29.99R HAZE
PALM SPRINGS   SUNNY     89  58  34 CALM      29.87R
EL CENTRO NAS  SUNNY     89  71  55 CALM      29.84R
IMPERIAL       SUNNY     88  72  58 CALM      29.81S
BLYTHE         SUNNY     93  61  34 S18       29.85R
NEEDLES        MOSUNNY  100  47  16 S15G21    29.86R
$$

NVZ020-UTZ003-051700-
SOUTHERN NEVADA-UTAH

CITY           SKY/WX    TMP DP  RH WIND       PRES   REMARKS
LAS VEGAS      MOSUNNY   95  45  17 CALM      29.88R
SALT LAKE CITY LGT RAIN  69  67  93 N10       30.05R
$$

NMZ009-TXZ055-051700-
NEW MEXICO-WEST TEXAS

CITY           SKY/WX    TMP DP  RH WIND       PRES   REMARKS
ALBUQUERQUE    PTSUNNY   76  56  49 S5        30.16S
EL PASO        PTSUNNY   81  62  52 CALM      30.08S
$$


........................KEY........................
SKY/WX - SKY CONDITION/WEATHER
TMP    - TEMPERATURE IN FAHRENHEIT
DP     - DEW POINT IN FAHRENHEIT
RH     - RELATIVE HUMIDITY IN PERCENT
WIND   - DIRECTION AND SPEED IN MILES PER HOUR (MPH)
VRB    - VARIABLE WIND DIRECTION
PRES   - MEAN SEA LEVEL PRESSURE IN INCHES OF MERCURY
         F - FALLING PRESSURE   R - RISING PRESSURE
         S - STEADY PRESSURE
VSB    - VISIBILITY IN MILES
HX     - HEAT INDEX IN FAHRENHEIT
WCI    - WIND CHILL INDEX IN FAHRENHEIT
TC     - TEMPERATURE IN CELSIUS WHICH IS ALSO KNOWN AS
         TEMPERATURE IN CENTIGRADE
AFB    - AIR FORCE BASE
         LUKE AFB IS LUKE AIR FORCE BASE
         DAVIS-MONTHAN IS DAVIS-MONTHAN AIR FORCE BASE
NAS    - NAVAL AIR STATION
         EL CENTRO NAS IS EL CENTRO NAVAL AIR STATION
N/A    - NOT AVAILABLE




USA.gov is the U.S. government's official web portal to all federal, state and local government web resources and services.